Newark Heath, OH

8:42 PM EST on January 19, 2018 (GMT -0500)
Newark Heath

Weather History for KVTA - September, 2012

Change the Weather History Date:

Sunday, September 9, 2012

  Actual Average Record
Temperature  
Mean Temperature 60 °F -  
Max Temperature 73 °F 79 °F 96 °F (1959)
Min Temperature 48 °F 55 °F 38 °F (1986)
Degree Days  
Heating Degree Days 5    
Growing Degree Days 10 (Base 50)    
Moisture  
Dew Point 52 °F    
Average Humidity 79    
Maximum Humidity 100    
Minimum Humidity 49    
Precipitation  
Precipitation 0.00 in - - ()
Sea Level Pressure  
Sea Level Pressure 29.96 in    
Wind  
Wind Speed 1 mph (NW)    
Max Wind Speed 13 mph    
Max Gust Speed -    
Visibility 8 miles    
Events      
Averages and records for this station are not official NWS values.
T = Trace of Precipitation, MM = Missing Value Source: NWS Daily Summary

Daily Weather History Graph

Daily Weather History Graph

Search for Another Location

Airport or City:

Trip Planner

Search our weather history database for the weather conditions in past years. The results will help you decide how hot, cold, wet, or windy it might be!

Date:

Astronomy

Sep. 09, 2012 Rise Set
Actual Time 7:05 AM EDT 7:47 PM EDT
Civil Twilight 6:38 AM EDT 8:14 PM EDT
Nautical Twilight 6:05 AM EDT 8:47 PM EDT
Astronomical Twilight 5:32 AM EDT 9:20 PM EDT
Moon 12:33 AM EDT (9/9) 3:32 PM EDT (9/9)
Length of Visible Light 13h 36m
Length of Day
12h 42m
Last Quarter, 39% of the Moon is Illuminated
Sep 9
Last Quarter
Sep 15
New
Sep 22
First Quarter
Sep 29
Full
Oct 8
Last Quarter

Hourly Weather History & Observations

Time (EDT) Temp. Dew Point Humidity Pressure Visibility Wind Dir Wind Speed Gust Speed Precip Events Conditions
12:54 AM 57.9 °F 55.0 °F 90% 29.90 in 10.0 mi Calm Calm - N/A   Mostly Cloudy
1:54 AM 55.0 °F 52.0 °F 89% 29.89 in 10.0 mi Calm Calm - N/A   Clear
2:54 AM 54.0 °F 52.0 °F 93% 29.89 in 10.0 mi Calm Calm - N/A   Mostly Cloudy
3:54 AM 53.1 °F 51.1 °F 93% 29.88 in 10.0 mi Calm Calm - N/A   Clear
4:54 AM 51.1 °F 50.0 °F 96% 29.89 in 10.0 mi Calm Calm - N/A   Clear
5:54 AM 51.1 °F 48.9 °F 92% 29.90 in 10.0 mi Calm Calm - N/A   Clear
6:50 AM 48.2 °F 48.2 °F 100% 29.92 in 1.8 mi Calm Calm - N/A   Clear
6:54 AM 48.9 °F 48.0 °F 97% 29.92 in 0.8 mi Calm Calm - N/A   Clear
7:05 AM 48.2 °F 48.2 °F 100% 29.92 in 2.5 mi Calm Calm - N/A   Clear
7:12 AM 50.0 °F 48.2 °F 94% 29.92 in 9.0 mi Calm Calm - N/A   Clear
7:54 AM 53.1 °F 52.0 °F 96% 29.93 in 10.0 mi Calm Calm - N/A   Clear
8:54 AM 57.0 °F 55.0 °F 93% 29.95 in 10.0 mi Calm Calm - N/A   Mostly Cloudy
9:54 AM 62.1 °F 55.0 °F 78% 29.96 in 10.0 mi Calm Calm - N/A   Overcast
10:54 AM 66.0 °F 54.0 °F 65% 29.96 in - Variable 3.5 mph - N/A   Unknown
11:54 AM 70.0 °F 51.1 °F 51% 29.97 in 10.0 mi WSW 4.6 mph - N/A   Partly Cloudy
12:54 PM 68.0 °F 52.0 °F 56% 29.97 in 10.0 mi WNW 3.5 mph - N/A   Mostly Cloudy
1:54 PM 72.0 °F 52.0 °F 49% 29.96 in 10.0 mi WNW 9.2 mph - N/A   Scattered Clouds
2:54 PM 71.1 °F 51.1 °F 49% 29.96 in 10.0 mi WNW 12.7 mph - N/A   Scattered Clouds
3:54 PM 69.1 °F 51.1 °F 53% 29.96 in 10.0 mi NNW 5.8 mph - N/A   Overcast
4:54 PM 69.1 °F 51.1 °F 53% 29.96 in 10.0 mi Variable 4.6 mph - N/A   Mostly Cloudy
5:54 PM 68.0 °F 52.0 °F 56% 29.99 in 10.0 mi NNW 4.6 mph - N/A   Overcast
6:54 PM 66.9 °F 53.1 °F 61% 30.01 in 10.0 mi NNW 4.6 mph - N/A   Overcast
7:54 PM 64.9 °F 52.0 °F 63% 30.01 in 10.0 mi NNE 3.5 mph - N/A   Overcast
8:54 PM 61.0 °F 53.1 °F 75% 30.04 in 10.0 mi Calm Calm - N/A   Scattered Clouds
9:54 PM 57.0 °F 54.0 °F 89% 30.05 in 10.0 mi Calm Calm - N/A   Clear
10:54 PM 54.0 °F 52.0 °F 93% 30.07 in 9.0 mi Calm Calm - N/A   Clear
11:43 PM 51.8 °F 51.8 °F 100% 30.08 in 1.8 mi Calm Calm - N/A   Clear
11:52 PM 53.6 °F 51.8 °F 94% 30.08 in 3.0 mi Calm Calm - N/A   Clear